Probability
0 0 0 0 0 0 0 0 0 0 0 0 0 0 0 0 0 0 0 0 0 0 0 0 0 0 0 0 0 0 0 0 0 0 0 0 0 0 0 0 0 0 0 0 0 0 0 0 0
0 0 0 0 0 0 0 0 0 0 0 0 0 0 0 0 0 0 0 0 0 0 0 0 0 0 0 0 0 0 0 0 0 0 0 0 0 0 0 0 0 0 0 0 0 0 0 0 0
0 0 0 0 0 0 0 0 0 0 0 0 0 0 0 0 0 0 0 0 0 0 0 0 0 0 0 0 0 0 0 0 0 0 0 0 0 0 0 0 0 0 0 0 0 0 0 0 0
0 0 0 0 0 0 0 0 0 0 0 0 0 0 0 0 0 0 0 0 0 0 0 0 0 0 0 0 0 0 0 0 0 0 0 0 0 0 0 0 0 0 0 0 0 0 0 0 0
0 0 0 0 0 0 0 0 0 0 0 0 0 0 0 0 0 0 0 0 0 0 0 0 0 0 0 0 0 0 0 0 0 0 0 0 0 0 0 0 0 0 0 0 0 0 0 0 0
0 0 0 0 0 0 0 0 0 0 0 0 0 0 0 0 0 0 0 0 0 0 0 0 0 0 0 0 0 0 0 0 0 0 0 0 0 0 0 0 0 0 0 0 0 0 0 0 0
0 0 0 0 0 0 0 0 0 0 0 0 0 0 0 0 0 0 0 0 0 0 0 0 0 0 0 0 0 0 0 0 0 0 0 0 0 0 0 0 0 0 0 0 0 0 0 0 0
0 0 0 0 0 0 0 0 0 0 0 0 0 0 0 0 0 0 0 0 0 0 0 0 0 0 0 0 0 0 0 0 0 0 0 0 0 0 0 0 0 0 0 0 0 0 0 0 0
0 0 0 0 0 0 0 0 0 0 0 0 0 0 0 0 0 0 0 0 0 0 0 0 0 0 0 0 0 0 0 0 0 0 0 0 0 0 0 0 0 0 0 0 0 0 0 0 0
0 0 0 0 0 0 0 0 0 0 0 0 0 0 0 0 0 0 0 0 0 0 0 0 0 0 0 0 0 0 0 0 0 0 0 0 0 0 0 0 0 0 0 0 0 0 0 0 0
0 0 0 0 0 0 0 0 0 0 0 0 0 0 0 0 0 0 0 0 0 0 0 0 0 0 0 0 0 0 0 0 0 0 0 0 0 0 0 0 0 0 0 0 0 0 0 0 0
0 0 0 0 0 0 0 0 0 0 0 0 0 0 0 0 0 0 0 0 0 0 0 0 0 0 0 0 0 0 0 0 0 0 0 0 0 0 0 0 0 0 0 0 0 0 0 0 0
0 0 0 0 0 0 0 0 0 0 0 0 0 0 0 0 0 0 0 0 0 0 0 0 0 0 0 0 0 0 0 0 0 0 0 0 0 0 0 0 0 0 0 0 0 0 0 0 0
0 0 0 0 0 0 0 0 0 0 0 0 0 0 0 0 0 0 0 0 0 0 0 0 0 0 0 0 0 0 0 0 0 0 0 0 0 0 0 0 0 0 0 0 0 0 0 0 0
0 0 0 0 0 0 0 0 0 0 0 0 0 0 0 0 0 0 0 0 0 0 0 0 0 0 0 0 0 0 0 0 0 0 0 0 0 0 0 0 0 0 0 0 0 0 0 0 0
0 0 0 0 0 0 0 0 0 0 0 0 0 0 0 0 0 0 0 0 0 0 0 0 0 0 0 0 0 0 0 0 0 0 0 0 0 0 0 0 0 0 0 0 0 0 0 0 0
0 0 0 0 0 0 0 0 0 0 0 0 0 0 0 0 0 0 0 0 0 0 0 0 0 0 0 0 0 0 0 0 0 0 0 0 0 0 0 0 0 0 0 0 0 0 0 0 0
0 0 0 0 0 0 0 0 0 0 0 0 0 0 0 0 0 0 0 0 0 0 0 0 0 0 0 0 0 0 0 0 0 0 0 0 0 0 0 0 0 0 0 0 0 0 0 0 0
0 0 0 0 0 0 0 0 0 0 0 0 0 0 0 0 0 0 0 0 0 0 0 0 0 0 0 0 0 0 0 0 0 0 0 0 0 0 0 0 0 0 0 0 0 0 0 0 0
0 0 0 0 0 0 0 0 0 0 0 0 0 0 0 0 0 0 0 0 0 0 0 0 0 0 0 0 0 0 0 0 0 0 0 0 0 0 0 0 0 0 0 0 0 0 0 0 0
0 0 0 0 0 0 0 0 0 0 0 0 0 0 0 0 0 0 0 0 0 0 0 0 0 0 0 0 0 0 0 0 0 0 0 0 0 0 0 0 0 0 0 0 0 0 0 0 0
0 0 0 0 0 0 0 0 0 0 0 0 0 0 0 0 0 0 0 0 0 0 0 0 0 0 0 0 0 0 0 0 0 0 0 0 0 0 0 0 0 0 0 0 0 0 0 0 0
0 0 0 0 0 0 0 0 0 0 0 0 0 0 0 0 0 0 0 0 0 0 0 0 0 0 0 0 0 0 0 0 0 0 0 0 0 0 0 0 0 0 0 0 0 0 0 0 0
0 0 0 0 0 0 0 0 0 0 0 0 0 0 0 0 0 0 0 0 0 0 0 0 0 0 0 0 0 0 0 0 0 0 0 0 0 0 0 0 0 0 0 0 0 0 0 0 0
0 0 0 0 0 0 0 0 0 0 0 0 0 0 0 0 0 0 0 0 0 0 0 0 0 0 0 0 0 0 0 0 0 0 0 0 0 0 0 0 0 0 0 0 0 0 0 0 0
0 0 0 0 0 0 0 0 0 0 0 0 1 1 0 0 0 0 0 0 0 0 0 0 0 0 0 0 0 0 0 0 0 0 0 0 0 0 0 0 0 0 0 0 0 0 0 0 0
0 0 0 0 0 0 0 0 0 0 0 1 2 2 1 0 0 0 0 0 0 0 0 0 0 0 0 0 0 0 0 0 0 0 0 0 0 0 0 0 0 0 0 0 0 0 0 0 0
0 0 0 0 0 0 0 0 0 0 0 1 2 2 1 0 0 0 0 0 0 0 0 0 0 0 0 0 0 0 0 0 0 0 0 0 0 0 0 0 0 0 0 0 0 0 0 0 0
0 0 0 0 0 0 0 0 0 0 0 1 2 2 1 0 0 0 0 0 0 0 0 0 0 0 0 0 0 0 0 0 0 0 0 0 0 0 0 0 0 0 0 0 0 0 0 0 0
0 0 0 0 0 0 0 0 0 0 0 1 2 2 1 0 0 0 0 0 0 0 0 0 0 0 0 0 0 0 0 0 0 0 0 0 0 0 0 0 0 0 0 0 0 0 0 0 0
Wind_Speed
2 2 2 3 4 2 5 4 3 4 5 5 6 5 7 7 6 8 6 5 7 7 8 9 9 9 10 10 10 10 10 10 10 10 9 9 9 9 8 8 7 7 7 7 6 6 6 6 6
2 2 3 4 3 3 5 4 6 7 6 6 6 6 7 8 8 9 7 7 8 8 8 9 10 10 10 11 11 11 11 10 10 10 10 9 9 8 8 7 7 7 7 7 6 6 6 6 6
1 2 3 2 1 3 6 5 8 8 6 3 5 6 6 7 7 7 8 9 9 9 9 11 10 11 11 11 11 11 11 11 10 10 9 9 8 7 7 7 7 6 6 6 6 6 6 5 5
2 3 2 1 6 6 6 7 7 8 5 4 6 8 8 7 6 10 10 10 10 9 10 12 10 11 11 12 11 11 11 10 9 9 8 8 7 7 6 6 6 6 6 6 6 5 6 5 5
2 2 2 3 6 6 6 5 5 6 5 5 7 10 10 8 11 12 11 10 10 10 11 12 11 11 11 11 11 10 10 9 9 8 7 7 6 6 6 6 6 5 6 6 5 5 5 5 4
2 2 2 5 7 6 6 5 6 8 9 8 9 11 9 10 11 11 10 10 10 10 10 11 12 11 11 11 10 10 9 9 8 8 7 7 7 6 6 5 5 5 5 5 5 5 5 5 4
2 1 2 5 7 7 5 4 5 7 9 7 7 10 10 11 10 10 10 10 9 9 8 8 9 10 10 10 9 9 9 9 8 8 8 7 7 6 6 6 6 6 6 6 6 5 5 5 4
2 1 4 4 6 7 6 5 6 7 9 7 5 8 11 12 11 10 9 9 9 8 7 7 7 6 6 8 9 8 8 8 8 7 7 5 3 4 4 4 7 7 6 6 6 6 5 4 4
3 3 3 4 4 6 7 6 5 6 8 7 6 9 14 15 12 11 9 9 8 7 6 6 5 5 5 5 6 5 5 5 3 4 4 2 3 4 3 9 8 7 7 6 6 5 4 3 1
2 2 3 2 2 5 7 6 7 7 9 10 12 13 15 13 12 10 9 9 8 7 6 5 4 4 4 3 3 3 4 4 5 5 5 4 4 4 4 5 5 5 4 2 4 3 3 5 0
1 1 3 3 3 5 7 6 5 7 8 10 15 17 15 13 11 9 8 8 7 6 5 4 4 3 3 2 3 3 3 3 4 5 5 3 3 2 3 2 2 2 3 3 2 2 2 2 2
1 3 3 4 4 5 6 6 6 5 7 10 14 16 15 13 10 9 9 8 6 5 4 3 3 3 3 3 3 2 3 3 4 5 6 4 3 3 4 3 4 3 3 4 3 3 3 3 1
2 4 5 5 5 5 6 7 7 7 9 12 15 15 14 12 11 8 7 6 5 4 4 4 2 3 3 4 2 3 4 4 5 4 5 5 4 4 3 3 3 4 4 3 3 3 4 3 3
3 5 6 5 5 5 7 7 6 8 10 13 15 14 13 11 10 8 6 5 5 4 5 5 4 4 4 4 4 5 4 4 5 5 6 6 4 4 4 4 4 4 4 4 4 3 3 2 2
4 6 6 4 4 4 6 7 7 8 10 13 14 13 12 10 8 7 6 4 4 5 5 6 4 5 5 6 6 5 4 5 5 5 6 7 6 6 5 5 5 5 4 4 4 4 3 2 2
5 7 6 4 4 3 5 7 7 7 10 12 12 12 11 9 8 6 5 4 4 5 6 7 5 6 6 6 5 4 5 5 5 5 5 7 7 7 5 5 5 5 5 4 3 4 3 3 3
7 8 8 6 4 4 5 7 7 7 9 10 11 12 11 10 9 7 5 4 4 5 6 7 7 6 6 6 5 5 5 5 4 5 5 6 7 7 6 5 5 6 5 5 5 5 4 4 3
9 9 8 7 5 5 6 7 8 9 9 10 10 10 11 10 10 8 6 5 5 6 6 7 7 6 6 4 4 4 4 4 4 5 5 7 6 7 6 5 7 6 5 5 5 5 4 4 3
6 7 7 5 4 4 6 7 8 8 9 10 10 10 11 10 9 8 7 7 7 7 7 7 7 6 5 4 3 3 4 3 4 4 6 5 6 6 6 5 7 6 6 6 7 5 5 4 3
7 7 7 6 5 4 6 6 6 8 9 9 10 11 11 10 10 8 8 8 8 8 8 8 7 6 5 3 3 3 3 3 3 3 4 5 6 6 5 6 5 6 5 7 7 6 4 4 4
7 8 7 7 6 5 5 6 8 8 8 8 9 9 10 11 12 11 10 9 8 8 8 6 6 6 5 5 3 3 3 3 3 3 3 5 5 6 6 7 6 6 6 6 6 6 6 4 5
6 4 5 7 7 6 6 5 10 11 10 11 11 11 11 11 11 11 10 10 9 8 7 7 7 6 5 5 4 3 2 2 3 2 3 3 4 5 5 6 6 6 6 5 6 7 5 5 4
4 4 4 5 6 5 7 6 8 11 13 14 13 12 11 11 11 11 10 10 8 8 7 7 7 6 6 4 4 3 3 2 2 2 3 3 4 4 5 5 5 6 5 6 6 6 6 5 5
7 6 3 2 4 8 10 8 7 11 14 14 14 13 12 12 11 10 9 9 8 8 7 7 7 6 6 5 4 3 3 3 2 2 2 2 3 3 5 4 4 5 5 6 6 5 6 6 6
9 7 5 6 6 6 6 7 6 7 10 12 14 14 13 12 12 12 11 10 9 9 8 8 8 7 6 6 5 4 3 2 2 1 2 2 2 3 4 4 4 5 5 5 5 5 5 6 6
12 10 6 5 6 5 6 8 4 4 5 7 10 12 13 13 12 12 12 11 10 10 9 8 8 7 7 6 5 4 3 2 2 2 2 2 2 3 4 4 4 5 4 4 4 4 5 5 5
11 9 4 3 2 5 7 5 4 5 7 9 11 13 14 14 13 13 12 11 10 10 9 9 9 8 7 6 5 4 3 2 3 2 2 2 2 3 3 4 4 5 5 5 4 4 5 5 5
6 7 6 6 5 6 6 7 6 11 12 12 13 14 14 14 14 13 12 11 10 9 9 8 8 8 7 6 5 4 4 3 2 2 2 2 3 3 3 3 4 4 4 5 4 4 5 5 5
9 9 7 6 4 4 4 4 3 8 12 15 15 15 15 15 14 13 12 11 10 10 9 9 9 8 7 6 6 5 5 4 4 3 3 2 2 3 3 3 3 4 4 4 4 4 4 4 5
9 10 10 7 6 5 4 2 4 5 8 12 14 14 15 15 13 13 12 12 11 11 10 9 9 8 7 7 6 6 5 5 4 4 3 2 2 2 3 3 3 4 4 4 4 4 4 4 5
Wind_Direction
248 289 268 243 228 156 89 81 93 102 81 70 70 69 70 50 41 77 95 99 102 99 97 105 96 96 94 91 89 88 87 86 85 84 82 80 77 73 69 63 57 52 50 44 38 37 37 35 33
306 293 249 246 238 130 94 94 96 84 96 102 81 77 79 72 71 92 108 106 102 93 89 87 92 90 89 89 88 86 83 82 81 80 79 76 73 69 66 63 57 51 45 40 33 32 32 28 27
272 265 272 255 108 85 104 106 101 99 105 107 96 70 62 79 88 95 107 113 102 94 90 89 90 89 86 84 85 84 82 81 80 79 77 74 71 67 63 59 52 46 40 33 27 24 24 22 21
260 232 237 206 96 76 102 116 115 114 100 90 104 89 77 68 85 105 115 113 105 99 94 90 86 87 86 84 82 81 79 78 77 75 71 69 64 60 56 49 41 37 29 24 23 17 14 14 13
251 260 187 121 98 95 99 106 122 109 100 104 106 101 90 79 99 110 115 112 105 98 95 94 85 86 85 82 79 76 75 73 70 66 62 59 56 51 47 43 35 28 21 18 17 12 9 6 1
254 252 179 133 116 114 108 107 120 105 105 106 109 107 98 112 113 113 113 109 103 99 98 100 90 80 78 77 75 72 70 66 62 58 52 48 45 42 40 36 29 23 18 17 15 13 9 6 357
295 272 147 132 131 128 112 112 121 115 114 110 117 112 118 123 118 120 115 110 104 102 99 98 103 101 91 77 67 64 60 56 54 48 44 42 40 38 36 32 25 20 22 20 15 14 13 10 2
317 249 155 145 146 126 122 115 109 108 105 113 121 124 134 133 130 124 121 120 115 112 106 100 95 89 91 92 75 59 54 50 49 46 40 33 61 69 46 36 35 21 23 22 20 20 15 10 10
266 227 170 143 145 129 139 132 111 108 117 111 96 109 125 132 138 135 135 131 125 121 117 110 105 96 84 75 80 76 76 55 43 76 60 336 28 43 51 41 32 30 28 25 22 18 8 323 145
251 215 115 91 116 134 143 135 133 139 127 120 116 116 127 140 146 144 140 134 132 129 123 117 112 101 86 69 73 56 56 53 34 34 30 25 32 29 22 88 54 40 23 36 36 344 268 266 184
256 68 89 96 102 137 139 129 137 140 128 134 137 139 143 145 146 142 133 124 118 117 117 114 110 98 78 76 51 45 44 48 45 33 31 24 28 39 29 27 69 34 349 359 18 284 341 339 24
142 82 86 95 105 134 135 134 131 114 114 132 137 141 145 148 145 141 134 127 123 115 110 106 109 109 83 66 64 51 49 42 41 35 28 25 27 16 31 21 16 5 8 359 347 343 2 354 14
168 116 102 104 110 117 125 121 113 103 116 130 136 144 147 146 142 138 130 125 122 119 118 105 100 91 89 77 63 64 58 45 58 38 32 33 29 29 26 29 14 7 5 1 354 349 12 353 11
143 132 120 116 113 119 124 117 117 112 131 139 145 149 151 147 145 143 142 137 129 123 108 107 109 98 98 97 80 67 69 71 53 47 41 39 40 34 19 29 24 18 7 4 352 10 7 13 29
154 148 132 123 124 127 134 124 120 130 146 147 151 151 151 152 153 153 145 140 124 117 113 106 102 101 96 84 74 75 69 64 58 52 45 51 44 38 32 25 29 21 12 10 9 22 5 31 46
173 178 164 138 141 154 176 140 127 151 159 155 158 156 159 163 165 161 155 145 129 125 118 114 112 110 101 94 90 85 75 68 62 56 48 47 45 39 35 29 30 23 18 19 25 19 21 36 33
187 191 173 143 154 167 177 145 142 167 171 165 168 164 168 169 170 167 163 156 138 130 128 121 116 115 108 104 101 91 84 71 63 57 47 38 37 33 42 31 24 27 27 24 23 31 23 41 41
186 185 176 161 150 174 169 153 152 172 183 176 175 175 175 177 173 166 160 149 142 140 136 124 122 125 120 119 114 106 92 80 65 58 53 38 34 33 36 37 34 27 35 32 33 37 39 36 31
178 179 170 142 141 177 175 167 168 174 187 185 183 185 182 179 170 162 160 158 156 155 150 140 146 143 142 138 130 115 102 90 76 60 51 44 40 37 40 29 35 25 36 32 32 28 48 43 24
183 179 164 143 155 178 180 188 183 189 196 197 193 187 184 178 173 170 173 168 166 163 164 156 151 148 145 123 110 106 100 87 73 71 71 48 42 36 33 34 38 38 35 37 34 30 27 44 26
188 194 177 158 151 168 181 201 201 193 199 201 206 199 189 184 181 175 177 171 169 172 172 162 154 155 152 143 130 131 126 133 119 92 69 47 41 40 33 34 29 32 34 38 30 27 30 37 44
183 185 184 172 181 178 198 205 201 194 197 201 199 198 196 185 185 177 174 174 178 175 170 166 159 159 152 158 159 144 124 101 82 70 75 72 55 47 37 34 28 32 36 37 37 38 29 24 38
161 157 187 196 200 188 201 225 195 189 202 202 196 193 192 184 184 180 176 176 174 168 168 165 156 157 158 164 154 168 133 106 101 99 88 69 68 49 44 34 33 34 38 39 39 36 31 35 32
144 146 146 193 213 217 203 219 205 193 204 197 191 189 185 181 179 175 169 167 165 163 163 164 159 156 159 170 170 168 137 135 119 106 84 79 79 62 57 39 37 38 40 40 39 41 44 37 37
181 178 182 192 205 215 187 222 226 189 200 198 189 184 178 176 173 170 167 168 166 166 166 165 164 161 165 172 174 162 158 146 122 94 90 64 71 68 58 47 41 42 41 41 40 43 40 45 40
193 204 210 205 198 179 191 227 204 154 191 200 188 177 172 173 173 171 169 169 167 166 166 167 166 163 163 167 166 158 151 158 103 85 73 73 64 63 60 55 51 50 44 45 45 38 43 41 44
189 208 237 268 231 209 197 210 210 181 188 187 180 174 176 174 172 171 168 169 166 166 167 169 167 164 163 161 159 160 158 145 124 120 96 85 84 77 72 69 67 62 49 43 44 44 45 43 38
219 191 196 219 211 213 201 214 204 182 189 185 182 180 178 175 174 171 168 168 166 164 166 168 168 164 161 160 160 156 151 139 127 120 100 91 91 86 80 77 76 75 64 57 47 48 37 44 52
183 194 210 218 241 250 203 186 183 189 187 188 186 183 179 177 176 171 168 165 162 162 164 166 166 162 159 161 158 156 148 147 142 122 106 108 110 111 95 74 67 65 59 58 58 43 42 33 44
206 207 210 215 211 243 258 150 121 187 189 190 184 180 179 177 172 169 165 162 163 165 165 165 163 160 159 160 159 155 146 154 149 132 124 125 110 101 99 88 77 68 58 50 49 43 38 33 31